TEVEL2-8

Last updated on Mon Sep 21 2026 00:03:15 GMT+0000 (Coordinated Universal Time)

1 63239U 25052AF 26263.24910583 .00011754 00000+0 35717-3 0 9991 2 63239 97.3792 158.3465 0006805 145.1781 214.9908 15.34190183 84583
UTC large
Height (km)
Speed (km/s)
/
Latitude / Longitude
Inclination (degrees)
Orbital Period (minutes)
Azimuth
Elevation
Range (km)
Doppler Factor

Next 0 passes for location: London (51.5072 / 0.1276)

No passes found over London.
TEVEL2-8